Regional Weather Roundup
Issued by NWS

Home | Current Version | Previous Version | Graphics & Text | Print | Product List | Glossary On
Versions: 1 2 3 4 5 6 7 8 9 10 11 12 13 14 15 16 17 18 19 20 21 22 23 24 25 26 27 28 29 30 31 32 33 34 35 36 37 38 39 40 41 42 43 44 45 46 47 48 49 50
261
ASUS43 KMKX 221700
RWRWI

WISCONSIN REGIONAL WEATHER ROUNDUP
NATIONAL WEATHER SERVICE MILWAUKEE/SULLIVAN WI
1200 PM CDT TUE AUG 22 2017

NOTE: "FAIR" INDICATES FEW OR NO CLOUDS BELOW 12,000 FEET WITH NO
SIGNIFICANT WEATHER AND/OR OBSTRUCTIONS TO VISIBILITY.

WIZ001-002-006>008-014>016-023>028-221800-
NORTHWEST WISCONSIN

CITY           SKY/WX    TMP DP  RH WIND       PRES   REMARKS
SUPERIOR ARPT    N/A     68  54  62 W10       29.94S
ASHLAND        SUNNY     69  52  54 W17G24    29.91F
HAYWARD        MOSUNNY   68  49  50 W9G16     29.96S
SIREN          SUNNY     69  49  49 NW20      30.00R
CUMBERLAND     SUNNY     64  48  55 NW13G22   30.00S
RICE LAKE      SUNNY     67  50  55 NW12      30.01S
CHETEK         MOSUNNY   67  52  58 NW9G16    30.00R
LADYSMITH      MOSUNNY   67  49  53 NW13      29.99R
EAU CLAIRE     NOT AVBL
MENOMONIE      SUNNY     68  51  54 W13G21    30.01S
NEW RICHMOND   SUNNY     68  50  52 NW13G22   30.03R
OSCEOLA        SUNNY     69  52  55 W10G17    30.05S
$$

WIZ003>005-009-010-017-018-221800-
NORTH CENTRAL WISCONSIN

CITY           SKY/WX    TMP DP  RH WIND       PRES   REMARKS
MANITOWISH WTR MOSUNNY   63  50  61 W15       29.90F
ARBOR VITAE    MOSUNNY   64  50  59 N17       29.90S
WOODRUFF       MOSUNNY   64  50  59 N17       29.90S
RHINELANDER    MOSUNNY   65  48  54 NW14G23   29.92R
EAGLE RIVER    MOSUNNY   64  46  53 NW21G29   29.89R
LAND O LAKES   MOSUNNY   63  49  59 NW9G17    29.90R
PHILLIPS       PTSUNNY   65  51  59 NW14      29.94R
TOMAHAWK         N/A     64  48  57 NW10G20   29.94R
MEDFORD        PTSUNNY   64  50  60 NW12      29.95R
MERRILL        MOSUNNY   66  52  59 NW12G23   29.93R
$$

WIZ029-030-035-036-043>047-221800-
CENTRAL WISCONSIN

CITY           SKY/WX    TMP DP  RH WIND       PRES   REMARKS
WAUSAU         MOSUNNY   68  48  48 NW20G28   29.91R
MOSINEE        PTSUNNY   66  52  59 W16G23    29.94R
MARSHFIELD     MOSUNNY   69  48  47 NW18G24   29.95R
STEVENS POINT  MOSUNNY   66  49  54 NW10G22   29.93R
WAUPACA        MOSUNNY   73  51  45 W12G23    29.90S
WAUTOMA        PTSUNNY   72  52  49 NW18G24   29.92R
WISC RAPIDS    MOSUNNY   71  52  50 NW14      29.95R
CAMP DOUGLAS   NOT AVBL
$$

WIZ011>013-019>022-031-037>040-048>050-221800-
NORTHEAST WISCONSIN

CITY           SKY/WX    TMP DP  RH WIND       PRES   REMARKS
ANTIGO         PTSUNNY   65  53  66 NW12G22   29.91R
SHAWANO        MOSUNNY   72  53  51 W13G18    29.87S
OCONTO         MOSUNNY   71  52  50 NW14G23   29.84R
STURGEON BAY   SUNNY     69  55  60 NW21G26   29.83
GREEN BAY      MOSUNNY   71  56  58 NW14G29   29.86R
MANITOWOC      NOT AVBL
APPLETON       PTSUNNY   72  48  43 NW20      29.88R
CLINTONVILLE   MOSUNNY   70  50  49 NW15G22   29.89R
OSHKOSH        MOSUNNY   71  53  52 NW17G25   29.88R
$$

WIZ032>034-041-042-053>061-221800-
SOUTHWEST WISCONSIN

CITY           SKY/WX    TMP DP  RH WIND       PRES   REMARKS
LA CROSSE      SUNNY     74  51  44 NW16      29.98S
SPARTA         MOSUNNY   70  54  57 NW16G23   29.98S
VIROQUA        MOSUNNY   67  56  66 NW14G23   30.00R
BOSCOBEL       MOSUNNY   75  53  46 NW15G24   29.98R
PRAIRIE DU CHI MOSUNNY   72  52  49 NW14G20   29.99S
PLATTEVILLE    PTSUNNY   71  61  70 NW13      29.99R
$$

WIZ056-057-062-063-064-067-068-221800-
SOUTH CENTRAL WISCONSIN

CITY           SKY/WX    TMP DP  RH WIND       PRES   REMARKS
REEDSBURG      PTSUNNY   71  53  53 NW15G23   29.94S
BARABOO/DELLS  PTSUNNY   72  51  47 NW12G18   29.94R
LONE ROCK      MOSUNNY   74  56  53 W17       29.95R
MINERAL POINT  SUNNY     73  55  53 N17       29.97R
MADISON        PTSUNNY   73  55  53 N14G24    29.93R
MIDDLETON      MOSUNNY   73  55  51 NW18      29.94R
WATERTOWN      MOSUNNY   73  57  58 NW16G25   29.90R
MONROE         MOSUNNY   72  55  56 W14G21    29.94S
JANESVILLE     MOSUNNY   75  59  57 NW18G25   29.91R
$$

WIZ051-052-058>065-066-070>072-221800-
SOUTHEAST WISCONSIN

CITY           SKY/WX    TMP DP  RH WIND       PRES   REMARKS
MILWAUKEE      PTSUNNY   79  57  46 W16G25    29.86R HX  80
WAUKESHA       PTSUNNY   73  55  53 W21       29.90R
MILWAUKEE/TIMM PTSUNNY   75  55  50 W17G25    29.87R
RACINE         MOSUNNY   76  60  57 NW15G24   29.88R
KENOSHA        MOSUNNY   77  60  55 W16G24    29.88R
FOND DU LAC    MOSUNNY   73  53  49 NW16G22   29.89R
SHEBOYGAN      MOSUNNY   72  59  63 NW15G24   29.86R
WEST BEND      PTSUNNY   72  55  56 W17G26    29.88R
JUNEAU         SUNNY     70  55  58 NW13G21   29.91R
$$

LSZ147-162-221800-
LAKE SUPERIOR

STATION/POSITION TIME  TEMP    WIND        PRES    WAVE
                       AIR SEA DIR/SP/G            HT/PER
                 (UTC) (F)     (DEG/KT/KT) (MB)    (FT/S)
W MID LAKE BUOY  1550   60 60  280/ 19/ 23 1009.6S   3/ 4
DEVILS ISLAND    1600   61     260/ 18/ 22 1011.7S
SAXON HARBOR     1630   65     300/  9/ 17 1012.2S
$$

LMZ867-665-643>646-221800-
LAKE MICHIGAN

STATION/POSITION TIME  TEMP    WIND        PRES    WAVE
                       AIR SEA DIR/SP/G            HT/PER
                 (UTC) (F)     (DEG/KT/KT) (MB)    (FT/S)
S GREEN BAY BUOY 1630   68 71  300/ 16/ 21 1010.2R
N MID LAKE BUOY  1550   64 67  300/ 19/ 23 1008.1R   4/ 4
NORTHPORT PIER   1640   67     300/ 11/ 21 1008.8S
KEWAUNEE LAKESHO 1630   69     320/ 10/ 19 1009.4R
SHEBOYGAN LAKESH 1600   70     310/ 18/ 22 1009.7R
PORT WASHINGTON  1630   75     300/ 12/ 18 1011.5R
ATWATER BUOY     1509   70 64  270/ 17/ 19 1010.4R
MILWAUKEE LAKESH 1630   74     300/ 18/ 24   N/A
S MID LAKE BUOY  1550   70 71  310/ 19/ 21 1010.1R   4/ 5
KENOSHA   LAKESH 1600   73     270/ 13/ 24 1010.8
$$

TC  - TEMPERATURE IN CELSIUS
VSB - VISIBILITY IN STATUTE MILES
WCI - WIND CHILL INDEX
HX  - HEAT INDEX





USA.gov is the U.S. government's official web portal to all federal, state and local government web resources and services.